TimeMDT,TemperatureF,Dew PointF,Humidity,Sea Level PressureIn,VisibilityMPH,Wind Direction,Wind SpeedMPH,Gust SpeedMPH,PrecipitationIn,Events,Conditions,WindDirDegrees,DateUTC
12:53 AM,48.0,43.0,83,29.97,10.0,NNW,11.5,-,N/A,,Scattered Clouds,330,2013-09-28 06:53:00
1:53 AM,46.9,43.0,86,29.99,10.0,NNW,11.5,-,N/A,,Partly Cloudy,330,2013-09-28 07:53:00
2:53 AM,45.0,42.1,90,30.01,10.0,NNW,10.4,-,N/A,,Clear,330,2013-09-28 08:53:00
3:53 AM,43.0,41.0,93,29.96,10.0,NW,9.2,-,N/A,,Clear,310,2013-09-28 09:53:00
4:53 AM,43.0,39.9,89,29.99,10.0,WNW,6.9,-,N/A,,Clear,290,2013-09-28 10:53:00
5:53 AM,42.1,39.0,89,30.01,10.0,WNW,11.5,-,N/A,,Clear,290,2013-09-28 11:53:00
6:53 AM,39.9,37.9,93,30.09,10.0,West,9.2,-,N/A,,Clear,280,2013-09-28 12:53:00
7:53 AM,45.0,39.0,80,30.10,10.0,WNW,9.2,-,N/A,,Clear,290,2013-09-28 13:53:00
8:53 AM,51.1,37.9,61,30.11,10.0,NW,17.3,-,N/A,,Clear,320,2013-09-28 14:53:00
9:53 AM,55.0,34.0,45,30.12,10.0,NW,19.6,28.8,N/A,,Clear,320,2013-09-28 15:53:00
10:53 AM,57.9,33.1,39,30.11,10.0,NNW,24.2,29.9,N/A,,Clear,330,2013-09-28 16:53:00
11:53 AM,60.1,34.0,38,30.11,10.0,NNW,18.4,28.8,N/A,,Clear,330,2013-09-28 17:53:00
12:53 PM,63.0,33.1,33,30.10,10.0,North,15.0,20.7,N/A,,Clear,350,2013-09-28 18:53:00
1:53 PM,64.9,30.9,28,30.08,10.0,NNW,15.0,31.1,N/A,,Clear,330,2013-09-28 19:53:00
2:53 PM,66.9,28.9,24,30.06,10.0,WNW,10.4,18.4,N/A,,Clear,300,2013-09-28 20:53:00
3:53 PM,66.9,27.0,22,30.07,10.0,WSW,8.1,-,N/A,,Clear,250,2013-09-28 21:53:00
4:53 PM,66.9,27.0,22,30.07,10.0,West,10.4,-,N/A,,Clear,270,2013-09-28 22:53:00
5:53 PM,64.0,30.0,28,30.09,10.0,SW,8.1,-,N/A,,Clear,220,2013-09-28 23:53:00
6:53 PM,55.0,36.0,49,30.10,10.0,South,8.1,-,N/A,,Clear,190,2013-09-29 00:53:00
7:53 PM,57.0,35.1,44,30.09,10.0,SSW,9.2,-,N/A,,Clear,200,2013-09-29 01:53:00
8:53 PM,55.9,35.1,45,30.10,10.0,SSW,10.4,-,N/A,,Clear,200,2013-09-29 02:53:00
9:53 PM,55.0,33.1,43,30.11,10.0,SSW,9.2,-,N/A,,Clear,210,2013-09-29 03:53:00
10:53 PM,53.1,32.0,45,30.10,10.0,SSW,11.5,-,N/A,,Clear,200,2013-09-29 04:53:00
11:53 PM,53.1,30.9,43,30.09,10.0,SSW,13.8,-,N/A,,Clear,200,2013-09-29 05:53:00